Miscellaneous Local Product
Issued by NWS Hastings, NE

Home | Current Version | Previous Version | Graphics & Text | Print | Product List | Glossary On
Versions: 1 2 3 4 5 6 7 8 9 10 11 12 13 14 15 16 17 18 19 20 21 22 23 24 25 26 27 28 29 30 31 32 33 34 35 36 37 38 39 40 41 42 43 44 45 46 47 48 49 50
000
AXUS43 KGID 252302
MISGRI

GID CWA HOURLY WEATHER ROUNDUP
NATIONAL WEATHER SERVICE HASTINGS NE
600 PM CDT SAT OCT 25 2014

NOTE: "FAIR" INDICATES FEW OR NO CLOUDS BELOW 12,000 FEET WITH NO
SIGNIFICANT WEATHER AND/OR OBSTRUCTIONS TO VISIBILITY.

...SOUTH CENTRAL NEBRASKA...

CITY           SKY/WX    TMP DP  RH WIND       PRES   REMARKS
GRAND ISLAND   CLEAR     71  43  36 E7        30.03F
HASTINGS       CLEAR     73  43  33 E8        30.01F
KEARNEY        CLEAR     72  46  40 E10       30.02F
ORD            CLEAR     68  40  35 SE9       30.03F
YORK           CLEAR     66  46  48 E8        30.04F
AURORA         CLEAR     70  40  34 E6        30.03F
LEXINGTON      CLEAR     74  48  39 E13       30.00F
HOLDREGE       CLEAR     74  50  41 E13       30.00F
HEBRON         CLEAR     76  49  38 E5        30.00F

...NEBRASKA PANHANDLE...

CITY           SKY/WX    TMP DP  RH WIND       PRES   REMARKS
CHADRON        CLEAR     72  42  34 E6        29.97F
ALLIANCE       CLEAR     72  41  32 SE8       30.00F
SCOTTSBLUFF    CLEAR     74  35  24 SE13      30.00F
SIDNEY         CLEAR     73  36  25 SE8       30.06S

...WESTERN AND NORTH CENTRAL NEBRASKA...

CITY           SKY/WX    TMP DP  RH WIND       PRES   REMARKS
VALENTINE      CLEAR     68  32  26 E12       30.03F
AINSWORTH      CLEAR     65  33  30 E7        30.04F
ONEILL         CLEAR     66  37  33 E7        30.06F
BROKEN BOW     CLEAR     70  46  42 SE10      30.02F
IMPERIAL       CLEAR     77  40  26 SE8       30.00F
NORTH PLATTE   CLEAR     72  47  40 E12       29.99F
MCCOOK         CLEAR     82  44  26 SE9       29.97F

...EASTERN NEBRASKA...

CITY           SKY/WX    TMP DP  RH WIND       PRES   REMARKS
NORFOLK        CLEAR     67  37  33 E6        30.05F
SO SIOUX CITY  CLEAR     68  36  30 E6        30.06F
TEKAMAH        CLEAR     70  38  31 NE6       30.04F
COLUMBUS       CLEAR     68  39  34 E7        30.06F
ALBION         CLEAR     68  38  32 E7        30.05S
OMAHA EPPLEY   CLEAR     70  42  36 NE6       30.04F
OFFUTT AFB     CLEAR     71  46  41 NE6       30.03F
MILLARD        CLEAR     73  43  33 CALM      30.04S
LINCOLN        CLEAR     68  47  46 NE8       30.04F
NEBRASKA CITY  CLEAR     72  34  24 NE5       30.03F
BEATRICE       CLEAR     73  49  42 E5        30.02S
FALLS CITY     CLEAR     74  45  35 E6        30.01F

...NORTHERN KANSAS...

CITY           SKY/WX    TMP DP  RH WIND       PRES   REMARKS
GOODLAND       CLEAR     81  41  24 S15       30.00F
HILL CITY      CLEAR     85  47  26 SE10      29.96F
NORTON         CLEAR     81  39  22 E7        29.96F
PHILLIPSBURG   CLEAR     82  57  42 E9        29.96F
SMITH CENTER   CLEAR     79  57  47 E9        29.98F
BELOIT         CLEAR     82  57  42 E7        29.95F
HAYS           CLEAR     82  52  34 S9        29.97F
RUSSELL        CLEAR     84  51  31 SE9       29.96F
CONCORDIA      CLEAR     79  60  52 E7        29.98F
SALINA         CLEAR     83  57  41 S6        29.96F
TOPEKA         CLEAR     78  58  49 E7        30.00F



USA.gov is the U.S. government's official web portal to all federal, state and local government web resources and services.